Lid_Strength_Index
6 10 12 10 9 9 10 11 12 11 8 10 11 11 10 7 7 7 7 6 6 5 4 3 2 2 2 1 1 1 1 1 1 1 2 2 2 1 1 0 0 0 0 0
9 10 8 6 8 9 10 11 12 10 9 10 11 12 9 8 7 7 7 7 6 5 5 4 3 2 2 2 2 2 1 1 1 1 1 1 1 1 0 0 0 0 0 0
10 8 6 6 8 9 10 11 11 12 10 9 11 13 11 8 7 6 6 5 5 6 5 4 3 3 2 2 2 2 1 1 1 1 1 1 1 1 1 1 1 0 0 0
9 7 7 8 9 9 13 7 9 9 11 16 10 19 13 10 10 8 6 6 6 5 5 4 4 3 3 2 1 1 1 1 1 1 2 2 2 3 2 1 1 1 0 0
9 8 9 9 8 8 10 6 8 8 11 13 13 14 14 10 11 10 7 6 6 5 5 4 4 3 2 2 2 1 1 1 1 1 1 1 2 2 2 1 1 1 0 0
8 6 7 8 6 7 7 8 8 9 12 16 13 13 15 13 11 10 8 6 6 5 5 4 3 3 3 2 2 1 2 2 1 1 1 1 2 2 3 2 2 1 1 1
8 8 7 6 10 8 9 12 17 17 18 18 11 13 14 10 9 8 8 7 6 5 5 5 4 4 3 3 3 2 2 2 1 1 1 1 2 1 2 2 2 2 1 1
13 14 9 8 9 10 11 12 16 20 20 17 12 16 13 8 7 7 6 6 5 5 4 5 4 4 3 3 2 2 2 2 2 1 1 1 1 1 1 1 2 1 1 1
13 11 8 8 7 9 10 12 9 13 14 16 13 11 9 7 8 7 7 6 6 5 5 5 4 3 3 3 2 2 2 2 2 2 1 1 1 1 1 1 1 1 1 0
10 12 9 8 7 7 10 10 13 13 16 19 17 15 13 10 9 8 8 8 7 5 5 4 4 4 3 2 2 2 2 2 2 1 1 1 1 1 1 1 1 1 0 0
10 11 10 9 10 10 11 13 12 13 12 18 19 16 9 9 9 9 8 7 6 6 5 4 4 3 3 2 2 2 2 2 2 1 1 1 1 1 1 1 1 2 1 0
9 11 13 10 7 8 9 11 11 14 14 15 16 15 8 7 8 8 7 7 6 5 5 4 4 3 3 3 3 2 2 2 2 2 2 1 1 1 1 1 1 2 4 3
9 12 15 13 10 9 10 10 11 12 12 14 17 16 7 7 7 7 7 7 6 5 5 4 4 4 4 3 3 2 3 2 1 2 3 1 1 1 1 1 1 1 2 3
6 11 12 14 12 11 12 10 9 11 13 15 14 13 9 8 8 7 7 6 6 6 5 5 5 4 4 3 3 3 3 2 2 2 2 2 2 1 1 1 1 1 1 1
9 11 10 10 9 9 9 10 9 11 11 13 12 12 11 8 8 7 6 6 6 6 5 5 5 4 4 4 3 3 2 3 2 2 2 2 2 2 1 1 1 1 1 1
8 11 9 11 9 9 10 9 9 10 10 11 11 11 7 7 6 6 6 6 6 6 5 5 4 4 4 4 3 3 2 2 2 2 2 1 3 3 3 1 1 1 1 1
9 10 12 14 10 10 13 10 10 9 9 9 12 10 7 8 7 7 7 6 6 6 5 5 4 4 4 4 3 3 3 2 2 2 2 2 2 2 3 3 3 1 1 1
9 10 11 13 12 18 11 7 7 8 7 8 8 8 7 7 6 6 5 6 6 5 5 4 4 4 3 3 3 2 2 2 2 2 2 2 3 2 1 1 2 2 1 1
8 9 13 14 15 12 10 8 8 9 9 7 8 7 7 6 6 7 5 5 5 4 4 4 3 3 3 3 2 2 3 3 3 3 2 2 2 2 2 2 2 2 2 2
8 8 11 13 16 17 11 7 6 6 12 6 6 7 7 7 11 9 5 4 4 4 4 4 3 3 3 3 2 3 3 3 3 3 2 2 2 2 2 2 2 2 1 2
12 12 13 12 14 12 8 6 6 12 11 7 6 6 7 9 7 6 4 4 4 4 4 3 3 3 3 3 2 3 3 3 3 2 2 2 2 2 1 2 2 2 2 2
12 13 13 12 14 15 6 6 10 8 7 6 6 6 6 6 5 5 4 4 4 4 3 3 4 4 3 3 3 4 3 2 2 2 2 2 2 2 2 2 2 2 2 3
12 10 11 11 11 7 5 6 6 5 6 6 6 5 5 5 5 5 5 5 4 4 4 3 3 4 3 3 2 3 3 2 2 3 2 2 2 2 3 4 4 3 2 3
9 8 10 10 8 7 5 5 4 4 5 5 4 4 4 5 5 5 4 4 4 4 4 3 4 4 4 3 2 2 2 2 3 3 3 3 3 3 4 5 6 4 4 3
9 8 10 10 8 6 6 5 5 4 4 4 4 4 4 4 5 4 5 4 4 4 4 3 4 4 4 3 3 2 2 2 3 3 3 3 3 3 8 11 11 10 8 9
8 10 12 12 7 8 7 5 4 5 5 4 4 5 4 4 4 4 4 4 4 4 4 4 4 4 3 3 3 2 2 2 3 4 3 2 2 3 4 7 10 12 13 13